STARLINK-35565, 66803

Orbit data source: Space-Track

STARLINK-35565, 66803 is a payload satellite owned by SpaceX/Seattle (US) in LEO that was launched on Mon, 01 Dec 2025 UTC via an FALCON 9 launch vehicle from the Air Force Eastern Test Range (AFETR). Payload-class satellites include a variety of spacecraft equipped with specific instruments for various scientific and technological missions. These include communications satellites like Starlink; space stations such as the ISS; scientific satellites like the Hubble; Earth observation satellites from companies like Planet Labs, Umbra, and HawkEye 360; GPS; miniature CubeSats for education and research; and military/defense satellites.

Loading next visibility...
Identifier
66803, 2025-278N
Orbit
LEO
Country
Flag of USUS
Related business
Manufacturer
SpaceX/Seattle
Mission
Operational Commercial Communications
Bus & Motor
STARLINK V2MO, Unknown motor
Mass
575 kg wet, ~530 kg dry
Launch date (UTC)
2025-12-01 (7 months ago)
Launch vehicle
FALCON 9
Launch site
Air Force Eastern Test Range (AFETR)
Object type
Payload
Rocket body
Debris
Shape & HBR
Box + 2 Pan, 17.7 m
Radar Cross Section
36.964 m², Large (>1 m²)

Expand to show TLE details & history
Last TLE update: 14 hours ago

TLE from 14 hours ago
0 STARLINK-35565
1 66803U 25278N   26171.26491740  .00012111  00000-0  44906-3 0  9999
2 66803  42.9997 255.3422 0000980 253.5579 106.5165 15.27567777 30899
Epoch: 2026-06-20T06:21Z
TLE epoch observation values (Epoch: 2026-06-20T06:21:28.863Z)
Latitude
-0.00001°
Longitude
-108.5101°
Altitude
483.052 km
Speed
7.626 km/s
True Right ascension
17h 01m 22s
True Declination
0° 00' 00"
Sunlit
Object was in full shadow at epoch
Visualization orbit readout
Latitude
Unknown
Longitude
Unknown
Altitude
Unknown
Speed
Unknown
Apparent Right ascension
Unknown
Apparent Declination
Unknown
Sunlit
N/A
Visualization observer readout
Local Sidereal Time
07:17:58
Azimuth
Unknown
Elevation
Unknown
Doppler factor
Unknown
Orbital elements
Apogee altitude
485.703 km
Perigee altitude
484.358 km
Semi-major axis
6,863.168 km
Eccentricity
0.0001
Inclination
42.9997°
RAAN
255.3422°
Arg. of periapsis
253.5579°
True anomaly
106.52727°
Mean anomaly
106.5165°
Eccentric anomaly
106.52188°
Mean motion
3.8173 °/min
Orbital period
94.31 mins
BSTAR
0.00044906
Loading maneuver chart data...
Computing Atmospheric mass density...
Loading historical data...
Loading historical data...
Loading historical data...
Loading historical data...
Loading historical data...
Loading historical data...
Loading historical data...

Documentation

Showing up to 5 results
|